EW7119 Weather Reports


time (UTC)temp
C
wind
direction
speed
KPH
gust
KPH
rain 1hr
cm
rain 24hr
cm
rain mn
cm
humidity
%
barometer
mb
20260905164519 21 265 0.0 0.0 0.00 0.00 0.00 38 1003.6
20260905163135 20 296 0.0 0.0 0.00 0.00 0.00 37 1003.6
20260905161550 20 26 0.0 0.0 0.00 0.00 0.00 39 1003.7
20260905160106 19 24 0.0 0.0 0.00 0.00 0.00 41 1003.7
20260905154554 18 39 0.0 0.0 0.00 0.00 0.00 44 1003.7
20260905153111 17 322 0.0 0.0 0.00 0.00 0.00 45 1003.7
20260905151610 16 351 0.0 0.0 0.00 0.00 0.00 47 1003.8
20260905150004 16 38 0.0 0.0 0.00 0.00 0.00 50 1003.9
20260905144521 16 38 0.0 0.0 0.00 0.00 0.00 48 1003.9
20260905143041 16 319 0.0 0.0 0.00 0.00 0.00 49 1003.9
20260905141532 16 318 0.0 0.0 0.00 0.00 0.00 50 1003.7
20260905140022 15 79 0.0 0.0 0.00 0.00 0.00 53 1003.7
20260905134548 14 59 0.0 0.0 0.00 0.00 0.00 54 1003.5
20260905133107 13 82 0.0 0.0 0.00 0.00 0.00 58 1003.6
20260905131612 13 82 0.0 0.0 0.00 0.00 0.00 59 1003.5
20260905130013 13 25 0.0 0.0 0.00 0.00 0.00 57 1003.5
20260905124517 13 75 0.0 6.4 0.00 0.00 0.00 59 1003.3
20260905123016 13 63 0.0 0.0 0.00 0.00 0.00 59 1003.1
20260905121550 13 88 0.0 0.0 0.00 0.00 0.00 61 1003.0
20260905120049 12 142 0.0 0.0 0.00 0.00 0.00 65 1003.0
20260905114555 12 141 0.0 0.0 0.00 0.00 0.00 66 1003.0
20260905113008 11 142 0.0 0.0 0.00 0.00 0.00 67 1003.0
20260905111601 11 142 0.0 0.0 0.00 0.00 0.00 66 1003.1
20260905110100 11 141 0.0 0.0 0.00 0.00 0.00 67 1003.0
20260905104506 11 142 0.0 0.0 0.00 0.00 0.00 67 1003.0
20260905103111 11 141 0.0 0.0 0.00 0.00 0.00 66 1002.9
20260905101508 12 141 0.0 0.0 0.00 0.00 0.00 65 1002.7
20260905100019 12 141 0.0 0.0 0.00 0.00 0.00 65 1002.7
20260905094531 12 141 0.0 0.0 0.00 0.00 0.00 64 1002.7
20260905093010 12 141 0.0 0.0 0.00 0.00 0.00 63 1002.6
20260905091502 12 141 0.0 0.0 0.00 0.00 0.00 63 1002.6
20260905090112 12 141 0.0 0.0 0.00 0.00 0.00 62 1002.6
20260905084620 13 141 0.0 0.0 0.00 0.00 0.00 60 1002.6
20260905083055 14 141 0.0 0.0 0.00 0.00 0.00 58 1002.8
20260905081552 14 141 0.0 0.0 0.00 0.00 0.00 57 1002.8
20260905080058 15 141 0.0 0.0 0.00 0.00 0.00 55 1002.7
20260905074604 15 141 0.0 0.0 0.00 0.00 0.00 53 1002.6
20260905073106 15 141 0.0 0.0 0.00 0.00 0.00 53 1002.6
20260905071547 15 141 0.0 0.0 0.00 0.00 0.00 52 1002.6
20260905070048 16 141 0.0 0.0 0.00 0.00 0.00 50 1002.5
20260905064537 15 141 0.0 0.0 0.00 0.00 0.00 51 1002.3
20260905063006 15 141 0.0 0.0 0.00 0.00 0.00 52 1002.5
20260905061531 15 141 0.0 0.0 0.00 0.00 0.00 53 1002.3
20260905060019 16 141 0.0 0.0 0.00 0.00 0.00 50 1002.2
20260905054551 17 169 0.0 8.0 0.00 0.00 0.00 49 1002.2
20260905053144 17 154 0.0 3.2 0.00 0.00 0.00 49 1002.2
20260905051520 17 162 0.0 9.7 0.00 0.00 0.00 49 1002.1
20260905050055 17 144 0.0 17.7 0.00 0.00 0.00 49 1002.2
20260905044607 17 138 0.0 17.7 0.00 0.00 0.00 50 1002.2
20260905043113 17 150 0.0 19.3 0.00 0.00 0.00 47 1002.4
20260905041531 17 151 1.6 16.1 0.00 0.00 0.00 46 1002.3
20260905040044 17 144 0.0 11.3 0.00 0.00 0.00 45 1002.4
20260905034552 17 157 0.0 12.9 0.00 0.00 0.00 45 1002.4
20260905033059 17 150 0.0 17.7 0.00 0.00 0.00 46 1002.4
20260905031552 17 138 0.0 17.7 0.00 0.00 0.00 45 1002.2
20260905030039 17 135 0.0 3.2 0.00 0.00 0.00 44 1002.3
20260905024525 17 141 0.0 1.6 0.00 0.00 0.00 44 1002.2
20260905023047 17 104 0.0 1.6 0.00 0.00 0.00 45 1002.0
20260905021553 17 155 0.0 9.7 0.00 0.00 0.00 45 1001.8
20260905020108 18 133 0.0 11.3 0.00 0.00 0.00 44 1001.6
20260905014559 18 123 0.0 14.5 0.00 0.00 0.00 43 1001.4
20260905013103 19 132 0.0 25.7 0.00 0.00 0.00 41 1001.4
20260905011617 20 132 3.2 17.7 0.00 0.00 0.00 38 1001.4
20260905010110 20 130 0.0 12.9 0.00 0.00 0.00 36 1001.3
20260905004606 21 143 1.6 17.7 0.00 0.00 0.00 34 1001.4
20260905003108 21 165 0.0 12.9 0.00 0.00 0.00 33 1001.5
20260905001610 22 161 0.0 1.6 0.00 0.00 0.00 31 1001.4
20260905000119 22 142 0.0 11.3 0.00 0.00 0.00 31 1001.5
20260904234612 22 157 1.6 16.1 0.00 0.00 0.00 31 1001.4
20260904233100 22 175 0.0 1.6 0.00 0.00 0.00 30 1001.4
20260904231556 22 168 0.0 0.0 0.00 0.00 0.00 30 1001.2
20260904230053 23 157 0.0 1.6 0.00 0.00 0.00 29 1001.2
20260904224609 23 144 0.0 3.2 0.00 0.00 0.00 29 1001.1
20260904223110 22 133 0.0 1.6 0.00 0.00 0.00 30 1001.2
20260904221506 22 140 0.0 0.0 0.00 0.00 0.00 29 1001.2
20260904220014 22 155 0.0 6.4 0.00 0.00 0.00 31 1001.4
20260904214609 22 175 0.0 11.3 0.00 0.00 0.00 30 1001.5
20260904213108 23 142 0.0 17.7 0.00 0.00 0.00 29 1001.4
20260904211612 23 128 4.8 22.5 0.00 0.00 0.00 28 1001.4
20260904210112 24 166 0.0 14.5 0.00 0.00 0.00 27 1001.6
20260904204502 24 112 0.0 19.3 0.00 0.00 0.00 27 1001.7
20260904203002 24 245 4.8 16.1 0.00 0.00 0.00 27 1001.9
20260904201505 24 270 0.0 3.2 0.00 0.00 0.00 29 1001.9
20260904200124 23 275 0.0 11.3 0.00 0.00 0.00 28 1002.1
20260904194505 21 290 0.0 0.0 0.00 0.00 0.00 34 1002.2
20260904193006 21 210 0.0 0.0 0.00 0.00 0.00 33 1002.4
20260904191514 21 146 0.0 6.4 0.00 0.00 0.00 34 1002.5
20260904190133 21 123 0.0 0.0 0.00 0.00 0.00 36 1002.6
20260904184557 22 329 0.0 9.7 0.00 0.00 0.00 32 1002.7
20260904183045 21 257 0.0 0.0 0.00 0.00 0.00 34 1002.7
20260904181553 21 257 0.0 0.0 0.00 0.00 0.00 35 1003.1
20260904180104 22 185 0.0 11.3 0.00 0.00 0.00 33 1003.2
20260904174523 21 298 0.0 11.3 0.00 0.00 0.00 34 1003.3
20260904173007 21 242 0.0 16.1 0.00 0.00 0.00 34 1003.3
20260904171524 22 173 0.0 14.5 0.00 0.00 0.00 33 1003.3
20260904170045 21 252 0.0 4.8 0.00 0.00 0.00 34 1003.2